Home > Weather > Pensacola > Past weeks

Flag for U.S.A. Weather for the Past 2 Weeks in Pensacola, Florida, U.S.A.

Now
59 °F

Sunny.


Feels Like: 57 °F
Forecast: 54 / 72 °F
Wind: 13 mph from West

Location: Pensacola Regional Airport

Current Time: Feb 12, 2016 at 7:11:35 AM

Latest Report: Feb 12, 2016 at 5:53 AM


Visibility: 10 mi

Pressure: 30.20 "Hg

Humidity: 90%

Dew point: 56 °F

Location of PensacolaLocation

Historic Weather in Pensacola — Graph

°F

Pensacola Temperature Yesterday

Maximum temperature yesterday: 69 °F (at 11:53 AM)
Minimum temperature yesterday: 39 °F (at 4:53 AM)
Average temperature yesterday: 58 °F

High & Low Weather Summary for the Past Weeks

 TemperatureHumidityPressure
High76 °F (Feb 1, 11:53 AM)100% (Feb 2, 12:53 AM)30.48 "Hg (Feb 2, 12:53 AM)
Low29 °F (Feb 10, 6:53 AM)20% (Feb 9, 2:53 PM)29.86 "Hg (Feb 3, 3:53 AM)
Average54 °F63%30.11 "Hg
* Reported Jan 28 5:53 AM — Feb 12 5:53 AM, Pensacola, Weather by CustomWeather, © 2016

Note: Actual official high and low records may vary slightly from our data, if they occured in-between our weather recording intervals... More about our weather records

Advertising

Pensacola Weather History for the Previous 24 Hours

 ConditionsComfort  
Time TempWeatherWind HumidityBarometerVisibility
5:53 AM
Fri, Feb 12
59 °FSunny.13 mph90%30.20 "Hg10 mi
4:53 AM60 °FClear.15 mph86%30.18 "Hg10 mi
3:53 AM60 °FPassing clouds.12 mph86%30.16 "Hg10 mi
2:53 AM60 °FClear.14 mph86%30.16 "Hg10 mi
1:53 AM60 °FClear.14 mph86%30.16 "Hg10 mi
12:53 AM61 °FClear.14 mph83%30.17 "Hg10 mi
11:53 PM
Thu, Feb 11
61 °FClear.13 mph83%30.17 "Hg10 mi
10:53 PM61 °FClear.12 mph87%30.18 "Hg10 mi
9:53 PM62 °FClear.13 mph83%30.19 "Hg10 mi
8:53 PM62 °FClear.13 mph86%30.19 "Hg10 mi
7:53 PM62 °FClear.10 mph86%30.18 "Hg10 mi
6:53 PM62 °FClear.10 mph83%30.18 "Hg10 mi
5:53 PM63 °FClear.12 mph81%30.17 "Hg10 mi
4:53 PM66 °FPassing clouds.15 mph70%30.16 "Hg10 mi
3:53 PM67 °FSunny.21 mph66%30.14 "Hg10 mi
2:53 PM69 °FPassing clouds.22 mph59%30.13 "Hg10 mi
1:53 PM69 °FSunny.20 mph57%30.14 "Hg10 mi
12:53 PM69 °FSunny.21 mph55%30.17 "Hg10 mi
11:53 AM69 °FSunny.15 mph51%30.20 "Hg10 mi
10:53 AM68 °FSunny.17 mph49%30.23 "Hg10 mi
9:53 AM66 °FSunny.18 mph49%30.24 "Hg10 mi
8:53 AM61 °FSunny.10 mph54%30.24 "Hg10 mi
7:53 AM52 °FSunny.5 mph80%30.25 "Hg10 mi
Weather by CustomWeather, © 2016

See weather overviewHow to use our weather pages